SQ6RR-11 Weather Reports


time (UTC)temp
C
wind
direction
speed
KPH
gust
KPH
rain 1hr
cm
rain 24hr
cm
rain mn
cm
humidity
%
barometer
mb
20260506171422 15 0 0.0 0.0 0.00 0.00 0.00 79 1006.9
20260506171017 15 0 0.0 0.0 0.00 0.00 0.00 78 1006.7
20260506170558 16 0 0.0 0.0 0.00 0.00 0.00 75 1006.4
20260506170147 16 0 0.0 0.0 0.00 0.00 0.00 74 1006.3
20260506165707 16 0 0.0 0.0 0.00 0.00 0.00 73 1006.2
20260506165255 16 0 0.0 0.0 0.00 0.00 0.00 71 1006.2
20260506164827 16 0 0.0 0.0 0.00 0.00 0.00 70 1006.3
20260506164412 17 0 0.0 0.0 0.00 0.00 0.00 68 1006.3
20260506163937 17 0 0.0 0.0 0.00 0.00 0.00 65 1006.4
20260506163454 17 0 0.0 0.0 0.00 0.00 0.00 62 1006.5
20260506163021 17 0 0.0 0.0 0.00 0.00 0.00 61 1006.5
20260506162551 17 0 0.0 0.0 0.00 0.00 0.00 58 1006.6
20260506162117 17 0 0.0 0.0 0.00 0.00 0.00 56 1006.6
20260506161632 18 0 0.0 0.0 0.00 0.00 0.00 54 1006.8
20260506161156 18 0 0.0 0.0 0.00 0.00 0.00 52 1006.9
20260506160722 18 0 0.0 0.0 0.00 0.00 0.00 53 1006.9
20260506160254 19 0 0.0 0.0 0.00 0.00 0.00 51 1007.0
20260506155835 18 0 0.0 0.0 0.00 0.00 0.00 47 1007.0
20260506155414 19 0 0.0 0.0 0.00 0.00 0.00 44 1007.1
20260506155005 20 0 0.0 0.0 0.00 0.00 0.00 38 1007.1
20260506154547 20 0 0.0 0.0 0.00 0.00 0.00 33 1006.9
20260506154111 22 0 0.0 0.0 0.00 0.00 0.00 29 1006.8
20260506153632 23 0 0.0 0.0 0.00 0.00 0.00 29 1006.7
20260506153207 23 0 0.0 0.0 0.00 0.00 0.00 26 1006.6
20260506152737 25 0 0.0 0.0 0.00 0.00 0.00 24 1006.6
20260506152323 25 0 0.0 0.0 0.00 0.00 0.00 24 1006.6
20260506151853 26 0 0.0 0.0 0.00 0.00 0.00 23 1006.6
20260506151427 27 0 0.0 0.0 0.00 0.00 0.00 22 1006.6
20260506151003 28 0 0.0 0.0 0.00 0.00 0.00 21 1006.6
20260506150542 28 0 0.0 0.0 0.00 0.00 0.00 21 1006.6
20260506150122 28 0 0.0 0.0 0.00 0.00 0.00 23 1006.7
20260506145642 27 0 0.0 0.0 0.00 0.00 0.00 24 1006.7
20260506145222 26 0 0.0 0.0 0.00 0.00 0.00 23 1006.9
20260506144747 26 0 0.0 0.0 0.00 0.00 0.00 25 1007.0
20260506144312 25 0 0.0 0.0 0.00 0.00 0.00 25 1007.1
20260506143850 25 0 0.0 0.0 0.00 0.00 0.00 25 1007.0
20260506143414 25 0 0.0 0.0 0.00 0.00 0.00 23 1007.0
20260506142937 26 0 0.0 0.0 0.00 0.00 0.00 23 1007.0
20260506142518 26 0 0.0 0.0 0.00 0.00 0.00 25 1007.0
20260506142042 26 0 0.0 0.0 0.00 0.00 0.00 25 1007.0
20260506141616 27 0 0.0 0.0 0.00 0.00 0.00 25 1007.0
20260506141142 26 0 0.0 0.0 0.00 0.00 0.00 27 1007.0
20260506140712 26 0 0.0 0.0 0.00 0.00 0.00 28 1007.1
20260506140252 24 0 0.0 0.0 0.00 0.00 0.00 28 1007.2
20260506135827 25 0 0.0 0.0 0.00 0.00 0.00 27 1007.3
20260506135347 25 0 0.0 0.0 0.00 0.00 0.00 26 1007.4
20260506134927 25 0 0.0 0.0 0.00 0.00 0.00 28 1007.4
20260506134510 25 0 0.0 0.0 0.00 0.00 0.00 30 1007.5
20260506134052 24 0 0.0 0.0 0.00 0.00 0.00 30 1007.5
20260506133610 24 0 0.0 0.0 0.00 0.00 0.00 31 1007.6
20260506133142 23 0 0.0 0.0 0.00 0.00 0.00 33 1007.6
20260506132717 23 0 0.0 0.0 0.00 0.00 0.00 34 1007.6
20260506132241 21 0 0.0 0.0 0.00 0.00 0.00 34 1007.6
20260506131757 21 0 0.0 0.0 0.00 0.00 0.00 35 1007.6
20260506131321 22 0 0.0 0.0 0.00 0.00 0.00 34 1007.7
20260506130832 22 0 0.0 0.0 0.00 0.00 0.00 35 1007.6
20260506130412 22 0 0.0 0.0 0.00 0.00 0.00 35 1007.8
20260506125942 22 0 0.0 0.0 0.00 0.00 0.00 36 1007.9
20260506125504 22 0 0.0 0.0 0.00 0.00 0.00 36 1007.9
20260506125046 21 0 0.0 0.0 0.00 0.00 0.00 36 1007.9
20260506124608 22 0 0.0 0.0 0.00 0.00 0.00 35 1007.9
20260506124146 22 0 0.0 0.0 0.00 0.00 0.00 36 1007.9
20260506123734 22 0 0.0 0.0 0.00 0.00 0.00 36 1007.9
20260506123309 22 0 0.0 0.0 0.00 0.00 0.00 35 1008.0
20260506122837 22 0 0.0 0.0 0.00 0.00 0.00 39 1008.0
20260506122404 22 0 0.0 0.0 0.00 0.00 0.00 40 1008.0
20260506121942 20 0 0.0 0.0 0.00 0.00 0.00 42 1008.0
20260506121509 20 0 0.0 0.0 0.00 0.00 0.00 43 1008.1
20260506121101 20 0 0.0 0.0 0.00 0.00 0.00 42 1008.2
20260506120637 19 0 0.0 0.0 0.00 0.00 0.00 42 1008.3
20260506120157 19 0 0.0 0.0 0.00 0.00 0.00 42 1008.2
20260506115727 19 0 0.0 0.0 0.00 0.00 0.00 41 1008.1
20260506115306 20 0 0.0 0.0 0.00 0.00 0.00 41 1008.0
20260506114846 20 0 0.0 0.0 0.00 0.00 0.00 42 1008.1
20260506114422 20 0 0.0 0.0 0.00 0.00 0.00 42 1008.1
20260506113937 20 0 0.0 0.0 0.00 0.00 0.00 42 1008.1
20260506113517 20 0 0.0 0.0 0.00 0.00 0.00 43 1008.0
20260506113041 20 0 0.0 0.0 0.00 0.00 0.00 44 1008.0
20260506112626 20 0 0.0 0.0 0.00 0.00 0.00 45 1008.0
20260506112201 19 0 0.0 0.0 0.00 0.00 0.00 45 1008.2
20260506111729 19 0 0.0 0.0 0.00 0.00 0.00 45 1008.2
20260506111237 19 0 0.0 0.0 0.00 0.00 0.00 47 1008.2
20260506110832 19 0 0.0 0.0 0.00 0.00 0.00 48 1008.1
20260506110406 18 0 0.0 0.0 0.00 0.00 0.00 48 1008.0
20260506105947 18 0 0.0 0.0 0.00 0.00 0.00 49 1008.0
20260506105524 17 0 0.0 0.0 0.00 0.00 0.00 47 1008.1
20260506105107 18 0 0.0 0.0 0.00 0.00 0.00 47 1008.1
20260506104652 18 0 0.0 0.0 0.00 0.00 0.00 49 1008.1
20260506104207 18 0 0.0 0.0 0.00 0.00 0.00 50 1008.1
20260506103727 17 0 0.0 0.0 0.00 0.00 0.00 50 1008.0
20260506103247 17 0 0.0 0.0 0.00 0.00 0.00 48 1008.1
20260506102816 18 0 0.0 0.0 0.00 0.00 0.00 49 1008.1
20260506102343 17 0 0.0 0.0 0.00 0.00 0.00 49 1008.2
20260506101941 18 0 0.0 0.0 0.00 0.00 0.00 51 1008.2
20260506101508 18 0 0.0 0.0 0.00 0.00 0.00 49 1008.1
20260506101046 18 0 0.0 0.0 0.00 0.00 0.00 50 1008.2
20260506100626 18 0 0.0 0.0 0.00 0.00 0.00 51 1008.0
20260506100152 17 0 0.0 0.0 0.00 0.00 0.00 51 1007.9
20260506095722 17 0 0.0 0.0 0.00 0.00 0.00 51 1007.8
20260506095249 17 0 0.0 0.0 0.00 0.00 0.00 51 1007.8
20260506094809 17 0 0.0 0.0 0.00 0.00 0.00 52 1007.9
20260506094352 17 0 0.0 0.0 0.00 0.00 0.00 54 1008.0
20260506093917 17 0 0.0 0.0 0.00 0.00 0.00 53 1008.0
20260506093502 17 0 0.0 0.0 0.00 0.00 0.00 53 1008.0
20260506093052 17 0 0.0 0.0 0.00 0.00 0.00 55 1008.0
20260506092636 17 0 0.0 0.0 0.00 0.00 0.00 55 1008.0
20260506092222 17 0 0.0 0.0 0.00 0.00 0.00 54 1008.0
20260506091737 17 0 0.0 0.0 0.00 0.00 0.00 53 1007.9
20260506091312 17 0 0.0 0.0 0.00 0.00 0.00 52 1007.9
20260506090853 17 0 0.0 0.0 0.00 0.00 0.00 55 1007.9
20260506090416 17 0 0.0 0.0 0.00 0.00 0.00 55 1007.9
20260506085951 16 0 0.0 0.0 0.00 0.00 0.00 54 1008.0
20260506085507 17 0 0.0 0.0 0.00 0.00 0.00 51 1008.0
20260506085102 17 0 0.0 0.0 0.00 0.00 0.00 52 1007.8
20260506084631 18 0 0.0 0.0 0.00 0.00 0.00 52 1007.7
20260506084142 18 0 0.0 0.0 0.00 0.00 0.00 56 1007.6
20260506083704 17 0 0.0 0.0 0.00 0.00 0.00 56 1007.7
20260506083237 17 0 0.0 0.0 0.00 0.00 0.00 55 1007.6
20260506082756 17 0 0.0 0.0 0.00 0.00 0.00 54 1007.7
20260506082327 17 0 0.0 0.0 0.00 0.00 0.00 53 1007.7
20260506081854 18 0 0.0 0.0 0.00 0.00 0.00 53 1007.6
20260506081412 17 0 0.0 0.0 0.00 0.00 0.00 57 1007.5
20260506080939 17 0 0.0 0.0 0.00 0.00 0.00 58 1007.5
20260506080502 16 0 0.0 0.0 0.00 0.00 0.00 58 1007.5
20260506073317 16 0 0.0 0.0 0.00 0.00 0.00 63 1007.5
20260506072837 16 0 0.0 0.0 0.00 0.00 0.00 64 1007.4
20260506072422 15 0 0.0 0.0 0.00 0.00 0.00 64 1007.3
20260506072002 15 0 0.0 0.0 0.00 0.00 0.00 66 1007.3
20260506071522 15 0 0.0 0.0 0.00 0.00 0.00 66 1007.2
20260506071102 15 0 0.0 0.0 0.00 0.00 0.00 66 1007.1
20260506070622 15 0 0.0 0.0 0.00 0.00 0.00 67 1007.2
20260506070151 15 0 0.0 0.0 0.00 0.00 0.00 67 1007.3
20260506062048 15 0 0.0 0.0 0.00 0.00 0.00 66 1007.0
20260506061616 15 0 0.0 0.0 0.00 0.00 0.00 66 1006.9
20260506061203 15 0 0.0 0.0 0.00 0.00 0.00 68 1006.9
20260506060742 15 0 0.0 0.0 0.00 0.00 0.00 67 1006.8
20260506060332 15 0 0.0 0.0 0.00 0.00 0.00 67 1006.8
20260506051416 13 0 0.0 0.0 0.00 0.00 0.00 75 1006.3
20260506050950 13 0 0.0 0.0 0.00 0.00 0.00 77 1006.1
20260506050520 13 0 0.0 0.0 0.00 0.00 0.00 77 1006.2
20260506044709 13 0 0.0 0.0 0.00 0.00 0.00 81 1005.9
20260506044229 13 0 0.0 0.0 0.00 0.00 0.00 81 1005.9
20260506043752 13 0 0.0 0.0 0.00 0.00 0.00 83 1005.8
20260506043338 13 0 0.0 0.0 0.00 0.00 0.00 82 1005.9
20260506042916 13 0 0.0 0.0 0.00 0.00 0.00 82 1006.0
20260506042448 13 0 0.0 0.0 0.00 0.00 0.00 81 1006.0
20260506042035 13 0 0.0 0.0 0.00 0.00 0.00 81 1005.8
20260506041606 13 0 0.0 0.0 0.00 0.00 0.00 81 1005.9
20260506041132 13 0 0.0 0.0 0.00 0.00 0.00 80 1005.8
20260506040657 13 0 0.0 0.0 0.00 0.00 0.00 80 1005.9
20260506040217 13 0 0.0 0.0 0.00 0.00 0.00 79 1005.8
20260506035751 13 0 0.0 0.0 0.00 0.00 0.00 78 1005.7
20260506035307 13 0 0.0 0.0 0.00 0.00 0.00 77 1005.6
20260506034852 13 0 0.0 0.0 0.00 0.00 0.00 76 1005.8
20260506034412 13 0 0.0 0.0 0.00 0.00 0.00 75 1005.8
20260506033941 14 0 0.0 0.0 0.00 0.00 0.00 75 1005.8
20260506033507 14 0 0.0 0.0 0.00 0.00 0.00 76 1005.8
20260506033032 14 0 0.0 0.0 0.00 0.00 0.00 77 1005.9
20260506032617 13 0 0.0 0.0 0.00 0.00 0.00 78 1005.8
20260506032142 13 0 0.0 0.0 0.00 0.00 0.00 80 1005.8
20260506031652 13 0 0.0 0.0 0.00 0.00 0.00 83 1005.9
20260506031217 13 0 0.0 0.0 0.00 0.00 0.00 86 1006.0
20260506030737 13 0 0.0 0.0 0.00 0.00 0.00 88 1005.9
20260506030302 13 0 0.0 0.0 0.00 0.00 0.00 90 1006.0
20260506025817 13 0 0.0 0.0 0.00 0.00 0.00 92 1005.9
20260506025405 13 0 0.0 0.0 0.00 0.00 0.00 92 1005.9
20260506024937 13 0 0.0 0.0 0.00 0.00 0.00 92 1005.9
20260506024454 13 0 0.0 0.0 0.00 0.00 0.00 93 1005.8
20260506024015 13 0 0.0 0.0 0.00 0.00 0.00 94 1005.9
20260506023557 13 0 0.0 0.0 0.00 0.00 0.00 94 1005.8
20260506023127 13 0 0.0 0.0 0.00 0.00 0.00 95 1005.7
20260506022645 13 0 0.0 0.0 0.00 0.00 0.00 95 1005.8
20260506022217 13 0 0.0 0.0 0.00 0.00 0.00 95 1005.8
20260506021757 13 0 0.0 0.0 0.00 0.00 0.00 94 1005.8
20260506021342 13 0 0.0 0.0 0.00 0.00 0.00 94 1005.9
20260506020907 13 0 0.0 0.0 0.00 0.00 0.00 94 1006.1
20260506020427 13 0 0.0 0.0 0.00 0.00 0.00 95 1006.1
20260506015947 13 0 0.0 0.0 0.00 0.00 0.00 95 1006.5
20260506015524 13 0 0.0 0.0 0.00 0.00 0.00 95 1006.7
20260506015056 13 0 0.0 0.0 0.00 0.00 0.00 95 1006.8
20260506014617 13 0 0.0 0.0 0.00 0.00 0.00 95 1006.9
20260506014132 13 0 0.0 0.0 0.00 0.00 0.00 96 1006.9
20260506013727 13 0 0.0 0.0 0.00 0.00 0.00 96 1006.9
20260506013312 13 0 0.0 0.0 0.00 0.00 0.00 96 1006.9
20260506012837 12 0 0.0 0.0 0.00 0.00 0.00 96 1007.0
20260506012432 12 0 0.0 0.0 0.00 0.00 0.00 96 1007.0
20260506012015 12 0 0.0 0.0 0.00 0.00 0.00 95 1006.9
20260506011552 12 0 0.0 0.0 0.00 0.00 0.00 94 1006.9
20260506011146 12 0 0.0 0.0 0.00 0.00 0.00 94 1006.8
20260506010717 12 0 0.0 0.0 0.00 0.00 0.00 94 1006.9
20260506010300 12 0 0.0 0.0 0.00 0.00 0.00 93 1006.8
20260506005852 12 0 0.0 0.0 0.00 0.00 0.00 93 1006.8
20260506005417 12 0 0.0 0.0 0.00 0.00 0.00 93 1006.9
20260506004952 12 0 0.0 0.0 0.00 0.00 0.00 93 1006.9
20260506004505 12 0 0.0 0.0 0.00 0.00 0.00 94 1006.9
20260506004047 12 0 0.0 0.0 0.00 0.00 0.00 94 1006.7
20260506003621 12 0 0.0 0.0 0.00 0.00 0.00 94 1006.7
20260506003207 12 0 0.0 0.0 0.00 0.00 0.00 94 1006.6
20260506002803 12 0 0.0 0.0 0.00 0.00 0.00 94 1006.6
20260506002322 12 0 0.0 0.0 0.00 0.00 0.00 94 1006.6
20260506001855 12 0 0.0 0.0 0.00 0.00 0.00 94 1006.5
20260506001427 12 0 0.0 0.0 0.00 0.00 0.00 93 1006.7
20260506000952 12 0 0.0 0.0 0.00 0.00 0.00 92 1006.6
20260506000521 12 0 0.0 0.0 0.00 0.00 0.00 91 1006.7
20260506000041 12 0 0.0 0.0 0.00 0.00 0.00 91 1006.8
20260505235617 12 0 0.0 0.0 0.00 0.00 0.00 91 1006.8
20260505235142 12 0 0.0 0.0 0.00 0.00 0.00 91 1007.0
20260505234732 12 0 0.0 0.0 0.00 0.00 0.00 91 1007.1
20260505234256 12 0 0.0 0.0 0.00 0.00 0.00 91 1007.2
20260505233831 13 0 0.0 0.0 0.00 0.00 0.00 91 1007.2
20260505233400 13 0 0.0 0.0 0.00 0.00 0.00 92 1007.2
20260505232922 13 0 0.0 0.0 0.00 0.00 0.00 92 1007.2
20260505232456 13 0 0.0 0.0 0.00 0.00 0.00 91 1007.2
20260505232017 13 0 0.0 0.0 0.00 0.00 0.00 91 1007.1
20260505231602 13 0 0.0 0.0 0.00 0.00 0.00 91 1007.0
20260505231140 13 0 0.0 0.0 0.00 0.00 0.00 91 1006.9
20260505230717 13 0 0.0 0.0 0.00 0.00 0.00 91 1006.8
20260505230257 13 0 0.0 0.0 0.00 0.00 0.00 90 1006.9
20260505225821 13 0 0.0 0.0 0.00 0.00 0.00 90 1006.9
20260505225402 13 0 0.0 0.0 0.00 0.00 0.00 90 1007.0
20260505224917 13 0 0.0 0.0 0.00 0.00 0.00 90 1007.0
20260505224512 13 0 0.0 0.0 0.00 0.00 0.00 90 1007.0
20260505224042 13 0 0.0 0.0 0.00 0.00 0.00 90 1007.0
20260505223622 13 0 0.0 0.0 0.00 0.00 0.00 90 1007.0
20260505223152 13 0 0.0 0.0 0.00 0.00 0.00 90 1007.1
20260505222722 13 0 0.0 0.0 0.00 0.00 0.00 90 1007.1
20260505222237 13 0 0.0 0.0 0.00 0.00 0.00 90 1007.2
20260505221810 13 0 0.0 0.0 0.00 0.00 0.00 89 1007.2
20260505221337 13 0 0.0 0.0 0.00 0.00 0.00 89 1007.3
20260505220921 13 0 0.0 0.0 0.00 0.00 0.00 89 1007.3
20260505220437 13 0 0.0 0.0 0.00 0.00 0.00 89 1007.4
20260505220007 12 0 0.0 0.0 0.00 0.00 0.00 88 1007.5
20260505215542 12 0 0.0 0.0 0.00 0.00 0.00 87 1007.5
20260505215112 12 0 0.0 0.0 0.00 0.00 0.00 86 1007.6
20260505214622 12 0 0.0 0.0 0.00 0.00 0.00 85 1007.6
20260505214142 12 0 0.0 0.0 0.00 0.00 0.00 85 1007.6
20260505213712 12 0 0.0 0.0 0.00 0.00 0.00 83 1007.6
20260505213237 12 0 0.0 0.0 0.00 0.00 0.00 82 1007.7
20260505212807 13 0 0.0 0.0 0.00 0.00 0.00 81 1007.7
20260505212332 13 0 0.0 0.0 0.00 0.00 0.00 80 1007.7
20260505211842 13 0 0.0 0.0 0.00 0.00 0.00 80 1007.8
20260505211412 13 0 0.0 0.0 0.00 0.00 0.00 80 1007.8
20260505210942 13 0 0.0 0.0 0.00 0.00 0.00 79 1007.8
20260505210504 14 0 0.0 0.0 0.00 0.00 0.00 78 1007.9
20260505210027 14 0 0.0 0.0 0.00 0.00 0.00 78 1007.9
20260505205612 15 0 0.0 0.0 0.00 0.00 0.00 78 1007.9
20260505205137 15 0 0.0 0.0 0.00 0.00 0.00 78 1008.0
20260505204717 15 0 0.0 0.0 0.00 0.00 0.00 78 1008.0
20260505204251 15 0 0.0 0.0 0.00 0.00 0.00 77 1008.0
20260505203822 15 0 0.0 0.0 0.00 0.00 0.00 77 1008.0
20260505203337 15 0 0.0 0.0 0.00 0.00 0.00 76 1008.0
20260505202917 15 0 0.0 0.0 0.00 0.00 0.00 76 1008.0
20260505202453 15 0 0.0 0.0 0.00 0.00 0.00 75 1008.0
20260505202026 15 0 0.0 0.0 0.00 0.00 0.00 75 1008.0
20260505201607 15 0 0.0 0.0 0.00 0.00 0.00 74 1008.0
20260505201151 15 0 0.0 0.0 0.00 0.00 0.00 74 1007.9
20260505200742 15 0 0.0 0.0 0.00 0.00 0.00 73 1007.9
20260505200300 16 0 0.0 0.0 0.00 0.00 0.00 73 1007.9
20260505195846 16 0 0.0 0.0 0.00 0.00 0.00 72 1007.9
20260505195417 16 0 0.0 0.0 0.00 0.00 0.00 72 1007.9
20260505195004 16 0 0.0 0.0 0.00 0.00 0.00 72 1007.9
20260505194537 16 0 0.0 0.0 0.00 0.00 0.00 72 1008.0
20260505194111 16 0 0.0 0.0 0.00 0.00 0.00 71 1007.8
20260505193702 16 0 0.0 0.0 0.00 0.00 0.00 71 1007.8
20260505193217 15 0 0.0 0.0 0.00 0.00 0.00 70 1007.7
20260505192757 16 0 0.0 0.0 0.00 0.00 0.00 70 1007.7
20260505192347 16 0 0.0 0.0 0.00 0.00 0.00 69 1007.8
20260505191905 16 0 0.0 0.0 0.00 0.00 0.00 69 1007.8
20260505191422 16 0 0.0 0.0 0.00 0.00 0.00 69 1007.8
20260505190942 16 0 0.0 0.0 0.00 0.00 0.00 69 1007.8
20260505190512 16 0 0.0 0.0 0.00 0.00 0.00 69 1007.9
20260505190047 16 0 0.0 0.0 0.00 0.00 0.00 69 1007.8
20260505185626 16 0 0.0 0.0 0.00 0.00 0.00 68 1007.8
20260505185157 16 0 0.0 0.0 0.00 0.00 0.00 67 1007.8
20260505184723 16 0 0.0 0.0 0.00 0.00 0.00 67 1007.8
20260505184251 16 0 0.0 0.0 0.00 0.00 0.00 66 1007.7
20260505183822 16 0 0.0 0.0 0.00 0.00 0.00 66 1007.7
20260505183330 16 0 0.0 0.0 0.00 0.00 0.00 65 1007.7
20260505182911 16 0 0.0 0.0 0.00 0.00 0.00 65 1007.8
20260505182437 16 0 0.0 0.0 0.00 0.00 0.00 64 1007.9
20260505182001 17 0 0.0 0.0 0.00 0.00 0.00 63 1007.9
20260505181523 17 0 0.0 0.0 0.00 0.00 0.00 63 1007.8
20260505181044 17 0 0.0 0.0 0.00 0.00 0.00 62 1007.8
20260505180617 17 0 0.0 0.0 0.00 0.00 0.00 61 1007.8
20260505180152 17 0 0.0 0.0 0.00 0.00 0.00 61 1007.9
20260505175657 17 0 0.0 0.0 0.00 0.00 0.00 61 1007.9
20260505175219 17 0 0.0 0.0 0.00 0.00 0.00 60 1007.9
20260505174737 17 0 0.0 0.0 0.00 0.00 0.00 60 1008.0
20260505174257 17 0 0.0 0.0 0.00 0.00 0.00 60 1008.0
20260505173831 18 0 0.0 0.0 0.00 0.00 0.00 59 1008.0
20260505173357 18 0 0.0 0.0 0.00 0.00 0.00 58 1008.0
20260505172911 18 0 0.0 0.0 0.00 0.00 0.00 57 1007.9
20260505172442 18 0 0.0 0.0 0.00 0.00 0.00 57 1007.8
20260505172005 18 0 0.0 0.0 0.00 0.00 0.00 57 1007.8
20260505171540 18 0 0.0 0.0 0.00 0.00 0.00 55 1007.8